W0WC Weather Reports


time (UTC)temp
F
wind
direction
speed
knots
gust
knots
rain 1hr
in
rain 24hr
in
rain mn
in
humidity
%
barometer
mb
20260505124654 56 350 4.3 7.0 0.00 0.39 0.39 89 1007.2
20260505124151 56 44 5.2 7.0 0.00 0.39 0.39 89 1007.3
20260505123647 56 17 2.6 3.5 0.00 0.39 0.39 89 1006.9
20260505123144 56 27 4.3 6.1 0.00 0.39 0.39 89 1007.1
20260505122640 56 39 3.5 3.5 0.00 0.39 0.39 89 1007.1
20260505122138 57 351 3.5 6.1 0.00 0.39 0.39 89 1007.1
20260505121634 57 28 3.5 6.1 0.00 0.39 0.39 89 1006.9
20260505121131 57 47 1.7 2.6 0.00 0.39 0.39 88 1006.6
20260505120627 57 4 2.6 2.6 0.00 0.39 0.39 89 1006.5
20260505120123 57 59 1.7 1.7 0.00 0.39 0.39 89 1006.3
20260505115618 58 3 2.6 3.5 0.00 0.39 0.39 89 1006.1
20260505115115 58 359 3.5 5.2 0.00 0.39 0.39 89 1006.2
20260505114612 58 24 0.9 1.7 0.00 0.39 0.39 89 1006.3
20260505114109 58 18 7.0 8.7 0.00 0.39 0.39 89 1006.2
20260505113605 59 13 2.6 5.2 0.00 0.39 0.39 90 1006.5
20260505113102 59 17 0.9 1.7 0.00 0.39 0.39 91 1006.1
20260505112558 59 48 2.6 3.5 0.00 0.39 0.39 91 1006.0
20260505112057 59 2 0.9 0.9 0.00 0.39 0.39 91 1005.7
20260505111556 59 21 3.5 5.2 0.00 0.39 0.39 91 1005.5
20260505111052 60 12 1.7 2.6 0.00 0.39 0.39 92 1005.7
20260505110549 60 82 3.5 3.5 0.00 0.39 0.39 93 1005.8
20260505102021 61 21 0.9 0.9 0.00 0.39 0.39 93 1005.6
20260505101520 61 5 3.5 5.2 0.00 0.39 0.39 93 1005.9
20260505101015 61 23 0.9 0.9 0.00 0.39 0.39 93 1006.0
20260505100513 61 21 0.9 1.7 0.00 0.39 0.39 93 1006.1
20260505100010 61 28 0.0 0.9 0.00 0.39 0.39 93 1006.1
20260505095506 61 14 1.7 1.7 0.00 0.39 0.39 93 1006.6
20260505095001 61 16 1.7 1.7 0.07 0.39 0.39 92 1006.4
20260505094459 62 111 1.7 2.6 0.07 0.39 0.39 92 1005.9
20260505093955 62 338 5.2 7.0 0.00 0.38 0.38 91 1006.0
20260505093451 62 25 0.0 0.0 0.00 0.38 0.38 91 1005.2
20260505092949 62 44 0.9 1.7 0.00 0.38 0.38 91 1005.2
20260505092446 62 68 1.7 1.7 0.00 0.38 0.38 91 1005.3
20260505091944 62 108 3.5 5.2 0.00 0.38 0.38 91 1005.0
20260505091441 62 193 4.3 6.1 0.00 0.38 0.38 92 1004.6
20260505090939 62 136 1.7 2.6 0.00 0.38 0.38 92 1004.5
20260505090437 62 218 3.5 6.1 0.00 0.38 0.38 91 1004.6
20260505085934 62 168 3.5 3.5 0.05 0.38 0.38 92 1005.0
20260505085431 62 119 1.7 2.6 0.12 0.38 0.38 92 1005.1
20260505084930 62 176 1.7 2.6 0.07 0.37 0.37 92 1005.3
20260505084428 62 210 1.7 2.6 0.07 0.37 0.37 92 1005.4
20260505083926 62 212 6.1 7.8 0.00 0.36 0.36 92 1005.3
20260505083423 62 173 3.5 3.5 0.00 0.36 0.36 92 1005.2
20260505082919 62 192 4.3 6.1 0.00 0.36 0.36 92 1004.8
20260505082415 62 157 3.5 5.2 0.00 0.36 0.36 92 1004.4
20260505081912 62 90 4.3 7.8 0.00 0.36 0.36 92 1004.5
20260505081408 62 118 4.3 6.1 0.00 0.36 0.36 93 1004.4
20260505080905 62 60 2.6 2.6 0.00 0.36 0.36 94 1004.4
20260505080401 62 211 5.2 8.7 0.00 0.36 0.36 94 1004.3
20260505075857 62 176 6.1 7.8 0.00 0.36 0.36 94 1003.6
20260505075354 62 106 5.2 7.0 0.05 0.36 0.36 94 1003.6
20260505074851 62 189 5.2 5.2 0.05 0.36 0.36 95 1004.1
20260505074348 62 154 8.7 13.0 0.05 0.36 0.36 95 1004.0
20260505073845 62 127 6.1 8.7 0.00 0.35 0.35 95 1004.7
20260505073343 62 142 5.2 8.7 0.00 0.35 0.35 95 1004.8
20260505072840 62 194 4.3 6.1 0.00 0.35 0.35 95 1005.1
20260505072336 62 171 4.3 7.8 0.00 0.35 0.35 95 1005.4
20260505071832 62 79 4.3 6.1 0.07 0.35 0.35 95 1006.3
20260505071329 62 73 1.7 2.6 0.12 0.35 0.35 94 1006.8
20260505070827 62 107 1.7 2.6 0.17 0.34 0.34 94 1006.6
20260505070323 62 247 2.6 3.5 0.38 0.33 0.33 94 1007.3
20260505065818 62 128 3.5 6.1 0.38 0.31 0.31 93 1007.1
20260505065316 62 209 2.6 3.5 0.31 0.28 0.28 93 1008.0
20260505064813 62 183 1.7 1.7 0.28 0.25 0.25 93 1007.9
20260505064310 62 13 0.0 0.9 0.28 0.23 0.23 92 1007.8
20260505063808 62 304 2.6 3.5 0.35 0.21 0.21 91 1007.9
20260505063304 62 225 3.5 5.2 0.38 0.18 0.18 91 1007.9
20260505062800 63 275 4.3 6.1 0.35 0.15 0.15 90 1008.0
20260505062258 63 196 6.1 7.8 0.24 0.12 0.12 88 1008.3
20260505061754 63 259 3.5 5.2 0.19 0.09 0.09 87 1007.7
20260505061252 64 266 3.5 3.5 0.31 0.08 0.08 85 1007.0
20260505060750 64 171 4.3 5.2 0.31 0.06 0.06 82 1006.8
20260505060247 66 293 2.6 2.6 0.17 0.03 0.03 79 1006.6
20260505055742 67 125 7.0 7.8 0.05 0.01 0.01 76 1006.2
20260505055238 67 200 7.8 8.7 0.05 0.01 0.01 72 1006.0
20260505054736 68 129 5.2 7.8 0.00 0.00 0.00 69 1005.4
20260505054234 69 192 4.3 5.2 0.00 0.00 0.00 68 1005.4
20260505053732 69 171 5.2 7.0 0.00 0.00 0.00 66 1005.5
20260505053228 69 167 2.6 3.5 0.00 0.00 0.00 65 1005.5
20260505052725 69 148 2.6 3.5 0.00 0.00 0.00 64 1005.2
20260505052222 69 89 1.7 1.7 0.00 0.00 0.00 64 1005.2
20260505051719 69 176 2.6 3.5 0.00 0.00 0.00 64 1005.4
20260505051217 69 170 1.7 1.7 0.00 0.00 0.00 64 1005.4
20260505050715 69 84 3.5 6.1 0.00 0.00 0.00 65 1005.5
20260505050213 69 143 5.2 7.0 0.00 0.00 0.00 65 1005.5
20260505041648 69 172 4.3 5.2 0.00 0.00 0.00 65 1005.5
20260505041146 69 176 3.5 5.2 0.00 0.00 0.00 65 1005.3
20260505040643 69 138 2.6 3.5 0.00 0.00 0.00 65 1005.5
20260505040140 69 108 1.7 1.7 0.00 0.00 0.00 65 1005.3
20260505035636 69 108 3.5 3.5 0.00 0.00 0.00 64 1005.5
20260505035132 69 152 1.7 1.7 0.00 0.00 0.00 64 1005.9
20260505034629 69 84 1.7 1.7 0.00 0.00 0.00 64 1006.2
20260505034126 70 228 5.2 7.0 0.00 0.00 0.00 64 1006.2
20260505033622 70 117 3.5 3.5 0.00 0.00 0.00 63 1006.1
20260505033121 70 189 6.1 7.8 0.00 0.00 0.00 63 1005.9
20260505032619 70 218 3.5 3.5 0.00 0.00 0.00 63 1006.0
20260505032115 70 166 4.3 6.1 0.00 0.00 0.00 63 1006.0
20260505031612 70 310 2.6 3.5 0.00 0.00 0.00 63 1006.0
20260505031108 70 191 4.3 7.0 0.00 0.00 0.00 62 1005.9
20260505030605 71 117 1.7 1.7 0.00 0.00 0.00 62 1005.7
20260505025557 71 255 2.6 2.6 0.00 0.00 0.00 61 1005.9
20260505025056 71 90 3.5 5.2 0.00 0.00 0.00 61 1005.9
20260505024553 71 73 1.7 1.7 0.00 0.00 0.00 60 1005.8
20260505024050 71 50 0.9 0.9 0.00 0.00 0.00 60 1005.9
20260505023547 71 132 4.3 6.1 0.00 0.00 0.00 59 1005.9
20260505023045 71 197 4.3 7.0 0.00 0.00 0.00 59 1005.7
20260505022542 72 113 1.7 1.7 0.00 0.00 0.00 59 1005.7
20260505022039 72 108 5.2 7.0 0.00 0.00 0.00 58 1005.9
20260505021536 72 142 3.5 5.2 0.00 0.00 0.00 58 1005.8
20260505021033 72 129 3.5 3.5 0.00 0.00 0.00 58 1005.7
20260505020532 72 118 3.5 5.2 0.00 0.00 0.00 58 1005.9
20260505020030 72 139 2.6 2.6 0.00 0.00 0.00 58 1005.6
20260505015527 72 146 3.5 3.5 0.00 0.00 0.00 57 1005.5
20260505015023 72 200 2.6 3.5 0.00 0.00 0.00 58 1005.5
20260505014520 72 167 3.5 5.2 0.00 0.00 0.00 57 1005.5
20260505014018 72 102 3.5 5.2 0.00 0.00 0.00 57 1005.5
20260505013515 72 172 3.5 3.5 0.00 0.00 0.00 57 1005.6
20260505013012 73 183 2.6 3.5 0.00 0.00 0.00 58 1005.6
20260505012510 73 163 4.3 6.1 0.00 0.00 0.00 57 1005.4
20260505012007 73 179 3.5 3.5 0.00 0.00 0.00 57 1005.2
20260505011502 73 44 0.9 0.9 0.00 0.00 0.00 57 1005.4
20260505011000 73 176 2.6 3.5 0.00 0.00 0.00 56 1005.5
20260505010455 73 146 3.5 5.2 0.00 0.00 0.00 55 1005.6
20260505005951 74 227 5.2 7.0 0.00 0.00 0.00 55 1005.5
20260505005448 74 124 5.2 6.1 0.00 0.00 0.00 54 1005.4
20260505004946 74 225 4.3 6.1 0.00 0.00 0.00 54 1005.4
20260505004442 74 161 3.5 3.5 0.00 0.00 0.00 54 1005.1
20260505003939 74 71 2.6 3.5 0.00 0.00 0.00 54 1005.1
20260505003436 75 204 4.3 6.1 0.00 0.00 0.00 54 1005.1
20260505002932 75 217 6.1 8.7 0.00 0.00 0.00 53 1005.1
20260505002429 75 202 6.1 8.7 0.00 0.00 0.00 53 1005.4
20260505001927 75 202 7.0 8.7 0.00 0.00 0.00 52 1005.2
20260505001425 75 228 7.8 9.6 0.00 0.00 0.00 52 1005.3
20260505000922 76 205 3.5 3.5 0.00 0.00 0.00 52 1005.2
20260505000420 76 182 4.3 5.2 0.00 0.00 0.00 51 1004.8
20260504235916 76 263 5.2 7.0 0.00 0.00 0.00 51 1004.9
20260504235414 76 238 4.3 6.1 0.00 0.00 0.00 50 1005.0
20260504234909 76 170 6.1 8.7 0.00 0.00 0.00 50 1005.0
20260504234407 77 228 9.6 12.2 0.00 0.00 0.00 50 1004.8
20260504233903 77 230 4.3 5.2 0.00 0.00 0.00 50 1004.8
20260504233359 77 155 4.3 6.1 0.00 0.00 0.00 50 1004.9
20260504232856 77 127 3.5 5.2 0.00 0.00 0.00 50 1004.8
20260504232353 77 248 3.5 5.2 0.00 0.00 0.00 49 1004.8
20260504231850 78 38 5.2 7.0 0.00 0.00 0.00 48 1005.0
20260504231346 78 136 6.1 7.8 0.00 0.00 0.00 47 1004.9
20260504230843 78 203 9.6 12.2 0.00 0.00 0.00 47 1005.1
20260504230340 78 258 7.0 8.7 0.00 0.00 0.00 47 1005.1
20260504225839 79 206 7.0 9.6 0.00 0.00 0.00 47 1004.9
20260504225335 79 73 4.3 6.1 0.00 0.00 0.00 47 1005.0
20260504224833 79 166 5.2 7.0 0.00 0.00 0.00 47 1004.9
20260504224329 79 132 3.5 5.2 0.00 0.00 0.00 47 1004.7
20260504223826 79 242 5.2 7.8 0.00 0.00 0.00 47 1004.7
20260504223321 80 131 7.0 11.3 0.00 0.00 0.00 47 1004.6
20260504222818 80 130 4.3 6.1 0.00 0.00 0.00 47 1004.6
20260504222315 80 235 1.7 2.6 0.00 0.00 0.00 48 1004.5
20260504221814 80 231 4.3 6.1 0.00 0.00 0.00 46 1004.8
20260504221310 80 192 7.8 11.3 0.00 0.00 0.00 46 1004.7
20260504220807 80 284 7.8 12.2 0.00 0.00 0.00 47 1004.6
20260504220304 81 212 8.7 13.0 0.00 0.00 0.00 46 1004.7
20260504215801 81 213 4.3 7.8 0.00 0.00 0.00 45 1004.5
20260504215257 82 197 5.2 7.0 0.00 0.00 0.00 45 1004.9
20260504214753 82 229 3.5 5.2 0.00 0.00 0.00 44 1004.9
20260504214250 82 208 1.7 3.5 0.00 0.00 0.00 44 1004.9
20260504213747 82 193 5.2 6.1 0.00 0.00 0.00 44 1004.9
20260504213243 82 156 6.1 9.6 0.00 0.00 0.00 44 1004.9
20260504212740 81 350 7.8 9.6 0.00 0.00 0.00 43 1004.7
20260504212237 81 254 1.7 3.5 0.00 0.00 0.00 44 1004.9
20260504211734 81 141 4.3 5.2 0.00 0.00 0.00 44 1004.9
20260504211230 81 215 3.5 5.2 0.00 0.00 0.00 44 1005.0
20260504210728 81 223 8.7 14.8 0.00 0.00 0.00 43 1004.9
20260504210225 82 172 8.7 13.9 0.00 0.00 0.00 43 1005.0
20260504205722 82 190 6.1 7.0 0.00 0.00 0.00 43 1005.2
20260504205220 81 195 5.2 7.0 0.00 0.00 0.00 45 1005.2
20260504204718 81 183 8.7 11.3 0.00 0.00 0.00 44 1005.4
20260504204216 82 165 11.3 15.6 0.00 0.00 0.00 43 1005.4
20260504203715 82 197 4.3 7.0 0.00 0.00 0.00 44 1005.3
20260504203212 82 211 7.8 8.7 0.00 0.00 0.00 44 1005.5
20260504202712 81 181 7.8 9.6 0.00 0.00 0.00 44 1005.6
20260504202209 81 197 4.3 7.0 0.00 0.00 0.00 44 1005.6
20260504201706 82 181 3.5 7.0 0.00 0.00 0.00 45 1005.4
20260504201203 81 189 7.0 8.7 0.00 0.00 0.00 45 1005.5
20260504200701 80 191 8.7 13.9 0.00 0.00 0.00 45 1005.9
20260504200152 81 215 7.8 11.3 0.00 0.00 0.00 44 1005.7
20260504195648 82 177 11.3 15.6 0.00 0.00 0.00 43 1005.7
20260504195144 81 207 2.6 5.2 0.00 0.00 0.00 46 1005.8
20260504194641 82 181 8.7 11.3 0.00 0.00 0.00 43 1006.0
20260504194137 81 286 2.6 2.6 0.00 0.00 0.00 45 1006.0
20260504193634 81 180 7.8 11.3 0.00 0.00 0.00 44 1006.1
20260504193132 80 70 3.5 7.0 0.00 0.00 0.00 46 1006.1
20260504192629 81 196 7.8 11.3 0.00 0.00 0.00 45 1006.2
20260504192127 80 227 3.5 5.2 0.00 0.00 0.00 45 1006.5
20260504191626 81 183 7.8 11.3 0.00 0.00 0.00 44 1006.5
20260504191121 81 2 0.9 1.7 0.00 0.00 0.00 48 1006.5
20260504190618 80 168 3.5 6.1 0.00 0.00 0.00 45 1006.5
20260504190115 80 148 8.7 13.0 0.00 0.00 0.00 45 1006.3
20260504185611 79 178 5.2 7.8 0.00 0.00 0.00 45 1006.4
20260504185108 80 224 11.3 19.1 0.00 0.00 0.00 44 1006.5
20260504184603 79 136 4.3 7.0 0.00 0.00 0.00 45 1006.3
20260504184058 79 158 5.2 8.7 0.00 0.00 0.00 45 1006.3
20260504183556 79 249 8.7 13.0 0.00 0.00 0.00 44 1006.4
20260504183054 79 256 7.8 13.0 0.00 0.00 0.00 45 1006.2
20260504182550 78 180 7.8 11.3 0.00 0.00 0.00 47 1006.1
20260504182048 78 249 7.8 9.6 0.00 0.00 0.00 46 1006.2
20260504181545 78 179 10.4 14.8 0.00 0.00 0.00 45 1006.4
20260504181043 79 249 7.8 9.6 0.00 0.00 0.00 45 1006.4
20260504180542 79 210 8.7 13.9 0.00 0.00 0.00 45 1006.4
20260504180040 79 264 9.6 13.0 0.00 0.00 0.00 45 1006.5
20260504175537 79 218 3.5 6.1 0.00 0.00 0.00 45 1006.7
20260504175034 78 239 5.2 9.6 0.00 0.00 0.00 46 1006.6
20260504174532 78 202 11.3 13.0 0.00 0.00 0.00 45 1006.6
20260504174028 78 218 10.4 13.0 0.00 0.00 0.00 45 1006.5
20260504173525 78 211 12.2 13.9 0.00 0.00 0.00 45 1006.6
20260504173023 78 194 5.2 7.0 0.00 0.00 0.00 46 1006.7
20260504172519 77 214 7.8 13.9 0.00 0.00 0.00 47 1006.7
20260504172015 77 211 6.1 11.3 0.00 0.00 0.00 47 1006.7
20260504171512 77 213 7.8 12.2 0.00 0.00 0.00 47 1006.7
20260504171009 77 163 7.8 16.5 0.00 0.00 0.00 47 1006.6
20260504170505 77 228 6.1 8.7 0.00 0.00 0.00 47 1006.7
20260504160425 75 206 9.6 14.8 0.00 0.00 0.00 48 1007.2
20260504150848 72 156 7.8 11.3 0.00 0.00 0.00 50 1007.3
20260504150345 72 183 6.1 7.8 0.00 0.00 0.00 51 1007.7
20260504141315 69 237 2.6 5.2 0.00 0.00 0.00 52 1008.2
20260504140812 69 207 9.6 12.2 0.00 0.00 0.00 52 1008.2
20260504140308 69 188 3.5 7.0 0.00 0.00 0.00 52 1008.5
20260504130737 66 187 5.2 7.8 0.00 0.00 0.00 55 1008.7
20260504130232 66 169 4.3 6.1 0.00 0.00 0.00 55 1008.6